Find Starlink 30152

NORAD ID: 56828 Int'l Des: 2023-079 Owner: SPXS Country: US Constellation: starlink operational
LEOCIRCULAR

Live Position

Loading 3D Globe...

About Starlink 30152

Description loading...

Upcoming Passes

Passes for default location (London). Set your location on the main map for personalized predictions.

Altitude History

Loading altitude history...

Two-Line Element Set

1 56828U 23079F 26110.37352517 -.00003908 00000-0 -13610-3 0 9999
2 56828 43.0025 231.6035 0001389 262.4446 97.6248 15.26731039159260
Epoch: Apr 20, 2026 • Age: 11 hours

Current Status

Altitude 498.0 km
Velocity 7.62 km/s
Sub-Earth Point -43.15°S, 4.38°W
Launch Date Jun 4, 2023
Age 2.8 years
Type internet

Technical Details

Classification Payload
Mass 730.00 kg
Dry Mass 700.00 kg
Total Mass 730.00 kg
Length 0.30 m
Diameter 4.10 m
Span 29.00 m
Shape Box + pan
Manufacturer SPXS
Bus Type Starlink V2M
Phase Status In Orbit
Owner/State SPXS/US

Most Searched